Location: Bílinka
(49.3579°N, 14.3767°E)
Time: 22:25:54
(UTC+00:00)

PSLV R/B - Pass Details

Date: 25 March 2025
Orbit: 410 x 442 km, 97.7° (Epoch: 28 April)

Event Time Altitude Azimuth Distance (km) Brightness Sun altitude
Exits shadow 20:38:47 20° 320° (NW) 1,098 6.1 -29.2°
Drops below altitude 10° 20:40:03 10° 332° (NNW) 1,575 7.0 -29.4°
Sets 20:42:10 0° 340° (NNW) 2,442 8.1 -29.6°
